Погода в Пуксе

Россия / Архангельская область     62°36′10″N   40°18′49″E
темп.,
°C
ветер,
м/с
пор.,
м/с
влажн.,
%
обл.,
%
осадки,
мм/ч
давл.,
гПа
погр.,
м
21 апреля, ср
ср2100:00+2юв39680 0.0 1024184
03:00+1юв397393 0.0 1023197
06:00+1вюв3107394 0.0 1020299
09:00+6вюв41153100 0.0 1017813
12:00+7вюв51148100 0.1 10131017
15:00+6юв51365100 0.3 10111331
18:00+3юв51196100 0.5 1008986
21:00+2юв51396100 0.7 1006810
22 апреля, чт
чт2200:00+2юв51496100 2.8 1004896
03:00+3ю4997100 3.4 1004922
06:00+1ю41096100 0.4 1005890
09:00+2ю4109199 0.7 1006805
12:00+3ю41186100 0.1 10071122
15:00+7ююз51079100 0.3 10081205
18:00+5юз4885100 0.4 1010952
21:00+5ююв26895 0.4 1011173
23 апреля, пт
пт2300:00+3ю399715 0.0 1011237
03:00+3ю399865 0.0 1013305
06:00+3ююв399730 0.0 1013259
09:00+8ююв488028 0.0 1013527
12:00+13ююв596285 0.0 10131376
15:00+14ююв5963100 0.6 10131541
18:00+12ю51172100 0.9 1013725
21:00+8ююв2793100 1.4 1014180
24 апреля, сб
сб2400:00+8юв31194100 0.1 1014337
03:00+8юв4149091 0.1 1013500
06:00+8ююв3109582 0.1 1014448
09:00+11юв597580 0.1 1013654
12:00+14юв596160 0.1 10121487
15:00+13вюв5963100 0.4 10111198
18:00+12вюв5107097 0.0 1010918
21:00+9вюв512765 0.0 1010637
25 апреля, вс
вс2500:00+7вюв4118248 0.0 1010451
03:00+5в4108996 0.0 1009352
06:00+6в398795 0.0 1008498
09:00+9в466134 0.1 10071150
12:00+9в3558100 0.3 10061339
15:00+9в456375 0.6 10051211
18:00+8всв457535 0.2 1005791
21:00+4всв249565 0.2 1005112